Stations météo

réclame
Mon MeteoGroup
Lerida, Espagne (8171): Température de l'air & dewpoint: 12.01.2020 14:00:00 - 18.01.2020 14:00:00 (CET)Lerida, Espagne (8171): Vitesse du vent: 12.01.2020 14:00:00 - 18.01.2020 14:00:00 (CET)Lerida, Espagne (8171): Direction du vent: 12.01.2020 14:00:00 - 18.01.2020 14:00:00 (CET)Lerida, Espagne (8171): reduced air pressure: 12.01.2020 14:00:00 - 18.01.2020 14:00:00 (CET)Lerida, Espagne (8171): visibility: 12.01.2020 14:00:00 - 18.01.2020 14:00:00 (CET)Lerida, Espagne (8171): Quantités de précipitations: 12.01.2020 14:00:00 - 18.01.2020 14:00:00 (CET)
Date & Time tt [°C] td [°C] ff [km/h] ff [knt] dd ppp [hPa] vv [km] rr [mm]
18.01.2020 14:00:00 10,0 3,0 9 5 NE 1026,9 20 0,0
18.01.2020 13:00:00 8,6 2,2 5 3 E 1028,9 25 -
18.01.2020 12:00:00 7,2 3,1 5 3 NE 1030,5 19 0,0
18.01.2020 11:00:00 3,9 1,6 5 3 NNE 1031,6 20 0,0
18.01.2020 10:00:00 3,0 1,2 8 4 NE 1031,6 19 -
18.01.2020 09:00:00 2,3 0,5 8 4 ENE 1032,2 19 0,0
18.01.2020 08:00:00 2,4 0,6 8 4 NNE 1032,5 20 0,0
18.01.2020 07:00:00 2,3 0,4 5 3 NNE 1032,4 20 -
18.01.2020 06:00:00 2,2 0,3 8 4 NNE 1032,3 19 0,0
18.01.2020 05:00:00 2,0 -0,3 9 5 NNE 1032,0 20 0,0
18.01.2020 04:00:00 2,5 0,2 8 4 WSW 1032,0 20 -
18.01.2020 03:00:00 2,6 0,0 8 4 SW 1032,1 20 0,0
18.01.2020 02:00:00 3,7 0,2 8 4 SSW 1031,8 20 0,0
18.01.2020 01:00:00 4,7 0,6 5 3 WSW 1031,7 20 -
18.01.2020 00:00:00 5,8 0,9 8 4 WSW 1031,5 20 0,0
17.01.2020 23:00:00 6,9 1,4 15 8 W 1031,4 20 0,0
17.01.2020 22:00:00 6,8 1,7 11 6 W 1031,2 20 -
17.01.2020 21:00:00 7,7 2,0 9 5 S 1031,1 20 0,0
17.01.2020 20:00:00 9,1 2,9 15 8 W 1030,4 20 0,0
17.01.2020 19:00:00 10,1 2,9 13 7 W 1028,6 50 -
17.01.2020 18:00:00 - - - - - - - -
17.01.2020 17:00:00 - - - - - - - -
17.01.2020 16:00:00 14,7 5,2 31 17 W 1026,5 19 -
17.01.2020 15:00:00 15,0 6,5 28 15 W 1026,1 20 0,0
17.01.2020 14:00:00 12,0 8,5 9 5 WSW 1026,9 14 0,0
17.01.2020 13:00:00 7,2 7,2 4 2 S 1028,2 3,8 -
17.01.2020 12:00:00 4,6 4,6 4 2 SW 1029,2 0,1 0,0
17.01.2020 11:00:00 3,7 3,7 4 2 SSE 1029,4 0,1 0,0
17.01.2020 10:00:00 3,2 3,2 4 2 SW 1028,7 - -
17.01.2020 09:00:00 2,8 2,8 5 3 W 1028,2 0,1 0,0
17.01.2020 08:00:00 2,0 1,9 5 3 SW 1027,9 0,1 0,0
17.01.2020 07:00:00 1,6 1,5 5 3 SW 1027,6 0,1 -
17.01.2020 06:00:00 1,9 1,8 4 2 S 1027,7 1,0 0,0
17.01.2020 05:00:00 0,9 0,8 5 3 SW 1027,8 0,2 0,0
17.01.2020 04:00:00 1,0 0,6 2 1 ESE 1027,9 1,1 -
17.01.2020 03:00:00 1,5 1,1 2 1 S 1027,8 2,1 0,0
17.01.2020 02:00:00 2,1 1,7 2 1 NNW 1027,9 1,3 0,0
17.01.2020 01:00:00 2,6 2,2 2 1 N 1027,8 1,8 -
17.01.2020 00:00:00 2,5 1,8 2 1 SE 1028,2 1,9 0,0
16.01.2020 23:00:00 3,3 2,9 5 3 NNE 1027,8 2,9 0,0
16.01.2020 22:00:00 3,5 2,3 4 2 NNE 1027,9 3,2 -
16.01.2020 21:00:00 4,0 2,7 4 2 E 1027,6 3,4 0,0
16.01.2020 20:00:00 5,3 3,3 5 3 NNE 1027,2 6 0,0
16.01.2020 19:00:00 6,7 4,0 9 5 NNE 1026,7 9 -
16.01.2020 18:00:00 8,0 4,2 5 3 ENE 1026,5 11 0,0
16.01.2020 17:00:00 9,3 4,5 4 2 E 1026,6 13 0,0
16.01.2020 16:00:00 9,3 5,5 2 1 WSW 1027,1 14 -
16.01.2020 15:00:00 6,6 4,8 2 1 SW 1027,5 9 0,0
16.01.2020 14:00:00 4,1 3,5 5 3 SSW 1028,6 4,5 0,0
16.01.2020 13:00:00 2,9 2,9 4 2 SSW 1029,9 2,2 -
16.01.2020 12:00:00 1,6 1,6 2 1 WSW 1030,9 1,8 0,0
16.01.2020 11:00:00 0,5 0,5 2 1 WNW 1031,3 0,4 0,0
16.01.2020 10:00:00 -0,2 -0,2 2 1 WNW 1031,4 0,1 -
16.01.2020 09:00:00 -0,5 -0,5 2 1 SW 1031,2 0,1 0,0
16.01.2020 08:00:00 -0,3 -0,3 5 3 NE 1030,8 0,1 0,0
16.01.2020 07:00:00 -0,2 -0,2 2 1 NNE 1030,7 0,1 -
16.01.2020 06:00:00 0,2 0,2 4 2 NE 1030,4 0,1 0,0
16.01.2020 05:00:00 0,3 0,3 2 1 WNW 1030,4 0,1 0,0
16.01.2020 04:00:00 0,2 0,2 2 1 NNE 1030,4 0,1 -
16.01.2020 03:00:00 0,5 0,5 4 2 E 1030,1 0,1 0,0
16.01.2020 02:00:00 0,6 0,6 4 2 SW 1029,7 0,1 0,0
16.01.2020 01:00:00 0,9 0,8 4 2 SW 1030,0 0,1 -
16.01.2020 00:00:00 1,2 1,1 2 1 S 1030,0 0,1 0,0
15.01.2020 23:00:00 1,2 1,2 2 1 N 1029,6 0,1 0,0
15.01.2020 22:00:00 1,3 1,2 4 2 NNE 1029,4 0,1 -
15.01.2020 21:00:00 1,2 1,1 5 3 ENE 1029,1 0,1 0,0
15.01.2020 20:00:00 1,2 1,1 4 2 ENE 1028,8 0,3 0,0
15.01.2020 19:00:00 1,4 1,1 2 1 SE 1027,9 0,1 -
15.01.2020 18:00:00 1,7 1,3 2 1 SW 1027,1 1,5 0,0
15.01.2020 17:00:00 2,0 1,4 5 3 SSW 1026,6 2,9 0,0
15.01.2020 16:00:00 2,2 1,8 4 2 SW 1026,5 3,8 -
15.01.2020 15:00:00 1,8 1,5 4 2 S 1026,3 3,5 0,0
15.01.2020 14:00:00 1,3 1,2 5 3 SSW 1027,1 3,0 0,0
15.01.2020 13:00:00 0,6 0,6 4 2 WNW 1027,8 1,6 -
15.01.2020 12:00:00 -0,1 -0,1 4 2 N 1028,4 1,0 0,0
15.01.2020 11:00:00 -0,6 -0,6 5 3 N 1028,2 0,6 0,0
15.01.2020 10:00:00 -0,6 -0,7 8 4 ENE 1027,3 0,3 -
15.01.2020 09:00:00 -0,2 -0,3 8 4 ENE 1026,7 0,2 0,0
15.01.2020 08:00:00 -0,1 -0,1 2 1 E 1026,2 0,2 0,0
15.01.2020 07:00:00 -0,2 -0,2 2 1 ESE 1025,9 0,2 -
15.01.2020 06:00:00 0,0 0,0 4 2 WNW 1025,8 0,3 0,0
15.01.2020 05:00:00 0,2 0,2 4 2 SW 1025,5 0,2 0,0
15.01.2020 04:00:00 0,4 0,4 4 2 S 1025,5 0,2 -
15.01.2020 03:00:00 0,5 0,5 4 2 SSE 1025,2 0,2 0,0
15.01.2020 02:00:00 0,5 0,4 5 3 S 1025,3 0,1 0,0
15.01.2020 01:00:00 0,7 0,6 2 1 SSE 1025,4 0,1 -
15.01.2020 00:00:00 1,0 0,9 2 1 W 1025,4 0,1 0,0
14.01.2020 23:00:00 1,1 1,0 4 2 SSW 1025,3 0,1 0,0
14.01.2020 22:00:00 1,2 1,1 5 3 SW 1025,1 0,2 -
14.01.2020 21:00:00 1,6 1,5 4 2 ESE 1024,7 0,2 0,0
14.01.2020 20:00:00 1,6 1,3 4 2 ESE 1024,5 0,3 0,0
14.01.2020 19:00:00 1,6 1,2 2 1 W 1024,1 1,6 -
14.01.2020 18:00:00 1,6 0,7 4 2 NNW 1023,6 3,9 0,0
14.01.2020 17:00:00 2,2 1,0 4 2 WNW 1023,4 - 0,0
14.01.2020 16:00:00 2,1 0,9 4 2 NE 1023,6 - -
14.01.2020 15:00:00 1,8 1,1 2 1 ESE 1023,8 4,5 0,0
14.01.2020 14:00:00 1,2 0,8 4 2 SE 1024,6 4,0 0,0
14.01.2020 13:00:00 0,7 0,6 4 2 E 1025,4 3,0 -
14.01.2020 12:00:00 0,3 0,2 5 3 ENE 1026,1 1,4 0,0
14.01.2020 11:00:00 -0,1 -0,1 4 2 SW 1026,2 0,5 0,0
14.01.2020 10:00:00 -0,2 -0,2 5 3 S 1025,6 0,2 -
14.01.2020 09:00:00 -0,4 -0,5 2 1 WSW 1025,0 0,3 0,0
14.01.2020 08:00:00 -0,4 -0,5 4 2 SSW 1024,8 0,3 0,0
14.01.2020 07:00:00 -0,4 -0,5 4 2 WSW 1024,6 0,2 -
14.01.2020 06:00:00 -0,4 -0,5 5 3 W 1024,2 0,2 0,0
14.01.2020 05:00:00 -0,1 -0,2 4 2 WSW 1024,2 0,2 0,0
14.01.2020 04:00:00 0,0 -0,1 5 3 WSW 1024,3 0,2 -
14.01.2020 03:00:00 0,1 0,0 4 2 SW 1024,5 0,2 0,0
14.01.2020 02:00:00 0,3 0,2 5 3 S 1024,4 0,2 0,0
14.01.2020 01:00:00 0,6 0,5 4 2 SSW 1025,0 0,2 -
14.01.2020 00:00:00 0,7 0,6 4 2 N 1025,3 0,3 0,0
13.01.2020 23:00:00 0,9 0,8 0 0 N 1024,8 0,7 0,0
13.01.2020 22:00:00 0,8 0,5 4 2 NNE 1025,0 1,1 -
13.01.2020 21:00:00 0,8 0,5 4 2 S 1025,1 1,0 0,0
13.01.2020 20:00:00 1,0 0,6 2 1 ESE 1025,1 1,9 0,0
13.01.2020 19:00:00 1,2 0,8 4 2 SE 1025,1 2,7 -
13.01.2020 18:00:00 1,6 1,0 8 4 S 1025,1 4,2 0,0
13.01.2020 17:00:00 1,7 1,0 5 3 S 1025,0 4,6 0,0
13.01.2020 16:00:00 1,6 0,9 5 3 SSE 1025,2 4,8 -
13.01.2020 15:00:00 1,2 0,8 4 2 WNW 1025,6 - 0,0
13.01.2020 14:00:00 0,8 0,4 4 2 ENE 1026,4 3,1 0,0
13.01.2020 13:00:00 0,4 0,3 4 2 E 1027,6 3,0 -
13.01.2020 12:00:00 0,2 0,1 4 2 N 1028,7 2,4 0,0
13.01.2020 11:00:00 -0,1 -0,2 5 3 ENE 1029,0 1,9 0,0
13.01.2020 10:00:00 -0,3 -0,4 5 3 NE 1029,1 0,8 -
13.01.2020 09:00:00 -0,3 -0,4 5 3 E 1028,8 0,4 0,0
13.01.2020 08:00:00 0,0 -0,1 5 3 ESE 1029,0 0,3 0,0
13.01.2020 07:00:00 0,3 0,3 4 2 SE 1029,1 0,3 -
13.01.2020 06:00:00 0,3 0,2 2 1 SSW 1029,3 0,6 0,0
13.01.2020 05:00:00 0,5 0,4 4 2 S 1029,5 0,3 0,0
13.01.2020 04:00:00 0,6 0,5 5 3 S 1030,0 0,2 -
13.01.2020 03:00:00 0,8 0,7 4 2 W 1030,6 0,3 0,0
13.01.2020 02:00:00 1,1 1,0 4 2 SSW 1030,6 0,2 0,0
13.01.2020 01:00:00 1,1 1,0 5 3 WNW 1031,4 0,4 -
13.01.2020 00:00:00 1,2 1,1 4 2 SSW 1031,8 0,3 0,0
12.01.2020 23:00:00 1,5 1,4 4 2 SE 1032,2 0,2 0,0
12.01.2020 22:00:00 1,7 1,6 5 3 SW 1032,3 0,2 -
12.01.2020 21:00:00 1,8 1,7 5 3 SSW 1032,5 0,1 0,0
12.01.2020 20:00:00 2,1 2,0 2 1 S 1032,4 0,2 0,0
12.01.2020 19:00:00 2,0 2,0 4 2 ESE 1032,0 0,3 -
12.01.2020 18:00:00 2,1 2,0 4 2 WNW 1031,6 0,4 0,0
12.01.2020 17:00:00 2,3 2,0 4 2 S 1031,7 0,7 0,0
12.01.2020 16:00:00 2,3 2,2 4 2 W 1031,6 2,4 -
12.01.2020 15:00:00 - - - - - - - -
12.01.2020 14:00:00 - - - - - - - -

tt = Température de l'air
td = dewpoint
ff = Vitesse du vent
dd = Direction du vent
ppp = reduced air pressure
vv = visibility
rr = Quantités de précipitations

stations d'obs. à proximité